Location: Vienna
(38.9012°N, 77.2653°W)
Time: 11:00:06
(UTC-05:00)

Hubble Space Telescope - Visible Passes

Search period start: 23 January 2018 00:00
Search period end: 02 February 2018 00:00
Orbit: 537 x 541 km, 28.5° (Epoch: 22 January)

Date Brightness Start Highest point End Pass type
(mag) Time Alt. Az. Time Alt. Az. Time Alt. Az.
23 Jan 3.1 18:56:47 10° S 18:58:16 12° SSE 18:58:58 11° SSE visible
24 Jan 3.0 18:45:50 10° SSW 18:47:53 13° SSE 18:49:22 11° SE visible
25 Jan 3.0 18:35:06 10° SSW 18:37:30 15° SSE 18:39:46 10° SE visible
25 Jan 3.9 20:15:07 10° SW 20:15:08 10° SW 20:15:08 10° SW visible
26 Jan 3.0 18:24:30 10° SSW 18:27:08 17° S 18:29:47 10° SE visible
26 Jan 3.6 20:04:48 10° SW 20:05:31 13° SW 20:05:31 13° SW visible
27 Jan 2.9 18:13:58 10° SW 18:16:46 18° S 18:19:34 10° SE visible
27 Jan 3.3 19:54:32 10° SW 19:55:55 15° SSW 19:55:55 15° SSW visible
28 Jan 2.9 18:03:31 10° SW 18:06:24 19° S 18:09:18 10° SE visible
28 Jan 3.1 19:44:20 10° SW 19:46:21 16° SSW 19:46:21 16° SSW visible
29 Jan 3.0 17:53:06 10° SW 17:56:02 19° S 17:59:00 10° SE visible
29 Jan 3.1 19:34:11 10° SW 19:36:36 15° SSW 19:36:50 15° S visible
30 Jan 3.2 19:24:10 10° SW 19:26:13 13° SSW 19:27:23 12° S visible
31 Jan 3.4 19:14:20 10° SW 19:15:50 12° SSW 19:17:20 10° S visible
